Location: Moscow
(55.7500°N, 37.5830°E)
Time: 14:27:03
(UTC+03:00)

S-56A Canister/Altair - Pass Details

Date: 07 December 2021
Orbit: 633 x 2499 km, 38.9° (Epoch: 17 January)

Event Time Altitude Azimuth Distance (km) Brightness Sun altitude
Rises 22:00:53 0° 202° (SSW) 5,710 - -48.0°
Reaches altitude 10° 22:07:09 10° 182° (S) 4,339 - -48.7°
Maximum altitude 22:12:30 15° 154° (SSE) 3,584 - -49.3°
Drops below altitude 10° 22:17:05 10° 124° (SE) 3,587 - -49.8°
Sets 22:21:21 0° 102° (ESE) 4,194 - -50.2°
